| time (UTC) | temp C | wind direction | speed KPH | gust KPH | rain 1hr cm | rain 24hr cm | rain mn cm | humidity % | barometer mb |
| 20260508152312 | 7 | 29 | 3.2 | 6.4 | 0.00 | 0.08 | 0.08 | 85 | 1011.7 |
| 20260508151311 | 7 | 309 | 6.4 | 14.5 | 0.00 | 0.08 | 0.08 | 84 | 1012.1 |
| 20260508150310 | 7 | 327 | 6.4 | 16.1 | 0.00 | 0.08 | 0.08 | 84 | 1012.1 |
| 20260508145308 | 8 | 220 | 0.0 | 9.7 | 0.00 | 0.08 | 0.08 | 86 | 1012.0 |
| 20260508144303 | 8 | 119 | 6.4 | 14.5 | 0.00 | 0.08 | 0.08 | 83 | 1012.1 |
| 20260508143303 | 7 | 215 | 3.2 | 11.3 | 0.00 | 0.08 | 0.08 | 88 | 1012.1 |
| 20260508142306 | 7 | 304 | 3.2 | 16.1 | 0.00 | 0.08 | 0.08 | 88 | 1012.0 |
| 20260508141302 | 6 | 87 | 1.6 | 8.0 | 0.00 | 0.08 | 0.08 | 93 | 1012.3 |
| 20260508140302 | 6 | 208 | 8.0 | 8.0 | 0.00 | 0.08 | 0.08 | 93 | 1012.0 |
| 20260508135300 | 5 | 263 | 1.6 | 4.8 | 0.00 | 0.08 | 0.08 | 94 | 1012.4 |
| 20260508134259 | 5 | 202 | 8.0 | 11.3 | 0.00 | 0.08 | 0.08 | 96 | 1012.1 |
| 20260508133259 | 4 | 178 | 8.0 | 9.7 | 0.00 | 0.08 | 0.08 | 99 | 1012.1 |
| 20260508132300 | 3 | 95 | 4.8 | 9.7 | 0.00 | 0.08 | 0.08 | 99 | 1012.5 |
| 20260508131257 | 3 | 170 | 4.8 | 8.0 | 0.00 | 0.08 | 0.08 | 99 | 1012.7 |
| 20260508130258 | 3 | 103 | 3.2 | 6.4 | 0.05 | 0.08 | 0.08 | 99 | 1012.6 |
| 20260508125255 | 3 | 112 | 4.8 | 6.4 | 0.05 | 0.08 | 0.08 | 99 | 1012.8 |
| 20260508124250 | 3 | 164 | 1.6 | 6.4 | 0.00 | 0.05 | 0.05 | 99 | 1012.4 |
| 20260508123246 | 3 | 96 | 4.8 | 8.0 | 0.00 | 0.05 | 0.05 | 99 | 1012.4 |
| 20260508122245 | 3 | 94 | 1.6 | 4.8 | 0.00 | 0.05 | 0.05 | 99 | 1012.5 |
| 20260508121241 | 2 | 89 | 3.2 | 4.8 | 0.00 | 0.05 | 0.05 | 99 | 1012.5 |
| 20260508120236 | 2 | 109 | 6.4 | 6.4 | 0.00 | 0.05 | 0.05 | 99 | 1012.4 |
| 20260508115231 | 2 | 133 | 6.4 | 8.0 | 0.00 | 0.05 | 0.05 | 99 | 1012.5 |
| 20260508114229 | 2 | 125 | 1.6 | 6.4 | 0.00 | 0.05 | 0.05 | 99 | 1012.3 |
| 20260508113225 | 2 | 130 | 4.8 | 4.8 | 0.00 | 0.05 | 0.05 | 99 | 1012.3 |
| 20260508112223 | 2 | 110 | 3.2 | 4.8 | 0.00 | 0.05 | 0.05 | 99 | 1012.3 |
| 20260508111218 | 1 | 76 | 3.2 | 4.8 | 0.00 | 0.05 | 0.05 | 99 | 1012.4 |
| 20260508110218 | 0 | 79 | 3.2 | 4.8 | 0.00 | 0.05 | 0.05 | 99 | 1012.3 |
| 20260508105214 | 1 | 78 | 8.0 | 8.0 | 0.00 | 0.05 | 0.05 | 99 | 1012.1 |
| 20260508104214 | 1 | 80 | 6.4 | 8.0 | 0.00 | 0.05 | 0.05 | 99 | 1012.0 |
| 20260508103209 | 0 | 83 | 6.4 | 9.7 | 0.00 | 0.05 | 0.05 | 99 | 1012.0 |
| 20260508102204 | 0 | 82 | 6.4 | 8.0 | 0.00 | 0.05 | 0.05 | 99 | 1012.1 |
| 20260508101205 | 0 | 83 | 8.0 | 9.7 | 0.00 | 0.05 | 0.05 | 99 | 1012.0 |
| 20260508100200 | 0 | 79 | 6.4 | 9.7 | 0.00 | 0.05 | 0.05 | 99 | 1012.1 |
| 20260508095159 | 0 | 80 | 9.7 | 9.7 | 0.00 | 0.05 | 0.05 | 99 | 1011.7 |
| 20260508094158 | -1 | 77 | 6.4 | 9.7 | 0.00 | 0.05 | 0.05 | 99 | 1011.9 |
| 20260508093153 | -1 | 70 | 8.0 | 9.7 | 0.00 | 0.05 | 0.05 | 99 | 1011.9 |
| 20260508092149 | 0 | 66 | 8.0 | 9.7 | 0.00 | 0.05 | 0.05 | 99 | 1011.9 |
| 20260508091148 | 0 | 52 | 3.2 | 8.0 | 0.00 | 0.05 | 0.05 | 99 | 1012.1 |
| 20260508090143 | 0 | 58 | 6.4 | 8.0 | 0.00 | 0.05 | 0.05 | 99 | 1012.3 |
| 20260508085143 | 0 | 80 | 4.8 | 8.0 | 0.00 | 0.05 | 0.05 | 99 | 1012.0 |
| 20260508084142 | 0 | 73 | 6.4 | 9.7 | 0.00 | 0.05 | 0.05 | 99 | 1011.7 |
| 20260508083137 | 0 | 79 | 6.4 | 8.0 | 0.00 | 0.05 | 0.05 | 99 | 1011.9 |
| 20260508082135 | 0 | 68 | 6.4 | 8.0 | 0.00 | 0.05 | 0.05 | 99 | 1012.0 |
| 20260508081135 | 0 | 71 | 6.4 | 6.4 | 0.00 | 0.05 | 0.05 | 99 | 1012.0 |
| 20260508080131 | 0 | 73 | 6.4 | 8.0 | 0.00 | 0.05 | 0.05 | 99 | 1011.8 |
| 20260508075129 | 0 | 75 | 4.8 | 6.4 | 0.00 | 0.05 | 0.05 | 99 | 1011.8 |
| 20260508074124 | 0 | 81 | 4.8 | 8.0 | 0.00 | 0.05 | 0.05 | 99 | 1011.7 |
| 20260508073119 | 0 | 85 | 3.2 | 8.0 | 0.05 | 0.05 | 0.05 | 99 | 1011.8 |
| 20260508072118 | 0 | 60 | 6.4 | 6.4 | 0.00 | 0.05 | 0.05 | 99 | 1011.8 |
| 20260508071113 | 0 | 85 | 4.8 | 6.4 | 0.00 | 0.05 | 0.05 | 99 | 1011.9 |
| 20260508070109 | 0 | 63 | 4.8 | 6.4 | 0.00 | 0.05 | 0.05 | 99 | 1012.0 |
| 20260508065110 | 0 | 77 | 3.2 | 8.0 | 0.00 | 0.05 | 0.05 | 99 | 1011.9 |
| 20260508064105 | 1 | 79 | 4.8 | 6.4 | 0.00 | 0.05 | 0.05 | 99 | 1011.9 |
| 20260508063100 | 1 | 83 | 4.8 | 8.0 | 0.00 | 0.05 | 0.05 | 99 | 1011.7 |
| 20260508062059 | 1 | 81 | 8.0 | 8.0 | 0.00 | 0.05 | 0.05 | 99 | 1011.9 |
| 20260508061055 | 1 | 83 | 3.2 | 6.4 | 0.00 | 0.05 | 0.05 | 99 | 1011.6 |
| 20260508060054 | 1 | 94 | 4.8 | 6.4 | 0.00 | 0.05 | 0.05 | 99 | 1011.6 |
| 20260508055053 | 1 | 87 | 4.8 | 6.4 | 0.00 | 0.05 | 0.05 | 99 | 1011.6 |
| 20260508054053 | 1 | 63 | 4.8 | 6.4 | 0.00 | 0.05 | 0.05 | 99 | 1011.6 |
| 20260508053047 | 2 | 87 | 4.8 | 6.4 | 0.00 | 0.05 | 0.05 | 99 | 1011.6 |
| 20260508052047 | 2 | 79 | 6.4 | 8.0 | 0.00 | 0.05 | 0.05 | 99 | 1011.7 |
| 20260508051044 | 1 | 93 | 6.4 | 8.0 | 0.00 | 0.05 | 0.05 | 99 | 1011.7 |
| 20260508050044 | 2 | 88 | 8.0 | 9.7 | 0.00 | 0.05 | 0.05 | 99 | 1011.5 |
| 20260508045043 | 2 | 84 | 4.8 | 6.4 | 0.00 | 0.05 | 0.05 | 99 | 1011.5 |
| 20260508044042 | 2 | 94 | 4.8 | 6.4 | 0.00 | 0.05 | 0.05 | 99 | 1011.6 |
| 20260508043037 | 2 | 91 | 4.8 | 6.4 | 0.00 | 0.05 | 0.05 | 99 | 1011.5 |
| 20260508042036 | 3 | 77 | 6.4 | 9.7 | 0.00 | 0.05 | 0.05 | 99 | 1012.0 |
| 20260508041035 | 3 | 70 | 4.8 | 9.7 | 0.23 | 0.05 | 0.05 | 99 | 1012.0 |
| 20260508040035 | 3 | 62 | 6.4 | 8.0 | 0.43 | 0.00 | 0.00 | 99 | 1012.3 |
| 20260508035035 | 3 | 119 | 1.6 | 6.4 | 0.13 | 0.41 | 0.41 | 99 | 1012.5 |
| 20260508034034 | 3 | 52 | 4.8 | 6.4 | 0.13 | 0.38 | 0.38 | 99 | 1012.4 |
| 20260508033030 | 3 | 102 | 3.2 | 4.8 | 0.30 | 0.36 | 0.36 | 98 | 1012.3 |
| 20260508032030 | 3 | 81 | 3.2 | 9.7 | 0.66 | 0.28 | 0.28 | 97 | 1011.8 |
| 20260508031028 | 4 | 23 | 4.8 | 14.5 | 0.84 | 0.18 | 0.18 | 96 | 1012.1 |
| 20260508030023 | 5 | 66 | 8.0 | 9.7 | 0.18 | 0.03 | 0.03 | 90 | 1011.8 |
| 20260508025022 | 6 | 357 | 3.2 | 9.7 | 0.00 | 0.00 | 0.00 | 79 | 1011.1 |
| 20260508024020 | 7 | 320 | 6.4 | 12.9 | 0.00 | 0.00 | 0.00 | 76 | 1010.7 |
| 20260508023015 | 7 | 11 | 3.2 | 8.0 | 0.00 | 0.00 | 0.00 | 70 | 1010.4 |
| 20260508022013 | 7 | 77 | 6.4 | 8.0 | 0.00 | 0.00 | 0.00 | 70 | 1010.5 |
| 20260508021010 | 7 | 41 | 3.2 | 6.4 | 0.00 | 0.00 | 0.00 | 67 | 1010.5 |
| 20260508020006 | 8 | 10 | 3.2 | 6.4 | 0.00 | 0.00 | 0.00 | 68 | 1010.3 |
| 20260508015000 | 8 | 57 | 6.4 | 9.7 | 0.00 | 0.00 | 0.00 | 67 | 1010.3 |
| 20260508013958 | 8 | 329 | 3.2 | 6.4 | 0.00 | 0.00 | 0.00 | 66 | 1010.1 |
| 20260508012958 | 8 | 333 | 3.2 | 4.8 | 0.00 | 0.00 | 0.00 | 66 | 1010.4 |
| 20260508011958 | 8 | 60 | 3.2 | 4.8 | 0.00 | 0.00 | 0.00 | 67 | 1009.9 |
| 20260508010953 | 8 | 340 | 1.6 | 4.8 | 0.00 | 0.00 | 0.00 | 65 | 1010.0 |
| 20260508005953 | 8 | 32 | 4.8 | 6.4 | 0.00 | 0.00 | 0.00 | 64 | 1009.8 |
| 20260508004952 | 8 | 69 | 4.8 | 6.4 | 0.00 | 0.00 | 0.00 | 68 | 1009.7 |
| 20260508003951 | 8 | 28 | 3.2 | 4.8 | 0.00 | 0.00 | 0.00 | 62 | 1009.8 |
| 20260508002951 | 8 | 34 | 3.2 | 4.8 | 0.00 | 0.00 | 0.00 | 61 | 1009.7 |
| 20260508001949 | 8 | 10 | 1.6 | 4.8 | 0.00 | 0.00 | 0.00 | 61 | 1009.3 |
| 20260508000948 | 9 | 29 | 3.2 | 4.8 | 0.00 | 0.00 | 0.00 | 59 | 1009.2 |
| 20260507235947 | 9 | 14 | 6.4 | 8.0 | 0.00 | 0.00 | 0.00 | 58 | 1009.3 |
| 20260507234942 | 10 | 333 | 4.8 | 8.0 | 0.00 | 0.00 | 0.00 | 58 | 1009.4 |
| 20260507233941 | 10 | 340 | 4.8 | 8.0 | 0.00 | 0.00 | 0.00 | 59 | 1009.4 |
| 20260507232936 | 10 | 18 | 3.2 | 8.0 | 0.00 | 0.00 | 0.00 | 57 | 1008.9 |
| 20260507231935 | 10 | 348 | 6.4 | 6.4 | 0.00 | 0.00 | 0.00 | 55 | 1009.1 |
| 20260507230934 | 10 | 2 | 6.4 | 8.0 | 0.00 | 0.00 | 0.00 | 54 | 1009.3 |
| 20260507225932 | 10 | 13 | 3.2 | 8.0 | 0.00 | 0.00 | 0.00 | 53 | 1008.8 |
| 20260507224930 | 10 | 32 | 4.8 | 9.7 | 0.00 | 0.00 | 0.00 | 54 | 1009.1 |
| 20260507223929 | 10 | 1 | 1.6 | 6.4 | 0.00 | 0.00 | 0.00 | 54 | 1008.9 |
| 20260507222928 | 10 | 0 | 4.8 | 6.4 | 0.00 | 0.00 | 0.00 | 56 | 1009.0 |
| 20260507221927 | 10 | 354 | 6.4 | 9.7 | 0.00 | 0.00 | 0.00 | 53 | 1008.9 |
| 20260507220926 | 10 | 350 | 3.2 | 8.0 | 0.00 | 0.00 | 0.00 | 56 | 1009.0 |
| 20260507215926 | 11 | 47 | 4.8 | 11.3 | 0.00 | 0.00 | 0.00 | 52 | 1009.0 |
| 20260507214926 | 11 | 43 | 6.4 | 8.0 | 0.00 | 0.00 | 0.00 | 53 | 1008.8 |
| 20260507213925 | 11 | 31 | 6.4 | 11.3 | 0.00 | 0.00 | 0.00 | 55 | 1009.1 |
| 20260507212925 | 11 | 29 | 14.5 | 16.1 | 0.00 | 0.00 | 0.00 | 56 | 1009.1 |
| 20260507211924 | 11 | 352 | 12.9 | 14.5 | 0.00 | 0.00 | 0.00 | 50 | 1008.8 |
| 20260507210923 | 12 | 346 | 8.0 | 9.7 | 0.00 | 0.00 | 0.00 | 49 | 1008.9 |
| 20260507205922 | 11 | 12 | 8.0 | 9.7 | 0.00 | 0.00 | 0.00 | 52 | 1008.9 |
| 20260507204921 | 12 | 11 | 4.8 | 6.4 | 0.00 | 0.00 | 0.00 | 57 | 1009.1 |
| 20260507203922 | 12 | 338 | 11.3 | 17.7 | 0.00 | 0.00 | 0.00 | 47 | 1009.1 |
| 20260507202921 | 11 | 6 | 12.9 | 16.1 | 0.00 | 0.00 | 0.00 | 49 | 1008.8 |
| 20260507201920 | 12 | 354 | 14.5 | 27.4 | 0.00 | 0.00 | 0.00 | 49 | 1009.0 |
| 20260507200918 | 11 | 255 | 3.2 | 4.8 | 0.00 | 0.00 | 0.00 | 52 | 1009.1 |
| 20260507195915 | 11 | 130 | 3.2 | 11.3 | 0.00 | 0.00 | 0.00 | 52 | 1009.2 |
| 20260507194910 | 11 | 23 | 4.8 | 12.9 | 0.00 | 0.00 | 0.00 | 52 | 1009.1 |
| 20260507193908 | 11 | 82 | 6.4 | 12.9 | 0.00 | 0.00 | 0.00 | 52 | 1009.4 |
| 20260507192908 | 11 | 14 | 4.8 | 14.5 | 0.00 | 0.00 | 0.00 | 52 | 1009.6 |
| 20260507191907 | 10 | 27 | 9.7 | 14.5 | 0.00 | 0.00 | 0.00 | 55 | 1009.5 |
| 20260507190905 | 10 | 258 | 9.7 | 12.9 | 0.00 | 0.00 | 0.00 | 53 | 1009.6 |
| 20260507185902 | 11 | 11 | 8.0 | 14.5 | 0.00 | 0.00 | 0.00 | 53 | 1009.6 |
| 20260507184901 | 12 | 328 | 4.8 | 9.7 | 0.00 | 0.00 | 0.00 | 51 | 1009.7 |
| 20260507183901 | 11 | 23 | 1.6 | 8.0 | 0.00 | 0.00 | 0.00 | 54 | 1009.7 |
| 20260507182856 | 11 | 47 | 16.1 | 19.3 | 0.00 | 0.00 | 0.00 | 49 | 1009.7 |
| 20260507181854 | 11 | 328 | 9.7 | 19.3 | 0.00 | 0.00 | 0.00 | 52 | 1009.9 |
| 20260507180853 | 12 | 348 | 1.6 | 11.3 | 0.00 | 0.00 | 0.00 | 53 | 1009.9 |
| 20260507175851 | 11 | 287 | 6.4 | 17.7 | 0.00 | 0.00 | 0.00 | 47 | 1010.0 |
| 20260507174846 | 11 | 75 | 14.5 | 17.7 | 0.00 | 0.00 | 0.00 | 53 | 1010.4 |
| 20260507173846 | 10 | 301 | 9.7 | 14.5 | 0.00 | 0.00 | 0.00 | 55 | 1010.4 |
| 20260507172845 | 11 | 126 | 6.4 | 16.1 | 0.00 | 0.00 | 0.00 | 58 | 1010.6 |
| 20260507171844 | 11 | 152 | 0.0 | 14.5 | 0.00 | 0.00 | 0.00 | 55 | 1010.4 |
| 20260507170843 | 10 | 333 | 6.4 | 9.7 | 0.00 | 0.00 | 0.00 | 52 | 1010.7 |
| 20260507165841 | 10 | 293 | 6.4 | 9.7 | 0.00 | 0.00 | 0.00 | 54 | 1010.8 |
| 20260507164839 | 10 | 252 | 11.3 | 14.5 | 0.00 | 0.00 | 0.00 | 50 | 1010.7 |
| 20260507163839 | 11 | 298 | 4.8 | 9.7 | 0.00 | 0.00 | 0.00 | 50 | 1010.9 |
| 20260507162839 | 11 | 12 | 4.8 | 9.7 | 0.00 | 0.00 | 0.00 | 61 | 1011.1 |
| 20260507161837 | 10 | 61 | 4.8 | 9.7 | 0.00 | 0.00 | 0.00 | 56 | 1011.2 |
| 20260507160836 | 10 | 4 | 3.2 | 11.3 | 0.00 | 0.00 | 0.00 | 61 | 1011.2 |
| 20260507155834 | 9 | 315 | 3.2 | 14.5 | 0.00 | 0.00 | 0.00 | 59 | 1011.3 |
| 20260507154833 | 10 | 315 | 4.8 | 14.5 | 0.00 | 0.00 | 0.00 | 58 | 1011.5 |
| 20260507153833 | 9 | 354 | 9.7 | 17.7 | 0.00 | 0.00 | 0.00 | 55 | 1011.6 |
| 20260507152832 | 9 | 1 | 9.7 | 17.7 | 0.00 | 0.00 | 0.00 | 56 | 1011.7 |